Overview Statistics Trail Chart Weather Telemetry Raw packets
 

This is the latest recevied weather packets stored in our database for station/object K7DC. If no packets are shown the sender has not sent any weather packets the latest 10 day(s).

<< 52 53 54 55 56 57 58 >>
Time Temp. Humidity Pressure Rain* Wind** Luminosity Snow
1788284719 31.11° C 46% 1018.2 hPa 0 mm - 790 W/m² -
1788284414 31.11° C 46% 1018.5 hPa 0 mm - 779 W/m² -
1788284109 31.11° C 46% 1018.2 hPa 0 mm - 769 W/m² -
1788283805 30.56° C 47% 1018.4 hPa 0 mm - 760 W/m² -
1788283500 30.56° C 46% 1018.5 hPa 0 mm - 748 W/m² -
1788283198 31.11° C 46% 1018.3 hPa 0 mm - 733 W/m² -
1788282897 31.11° C 47% 1018.2 hPa 0 mm - 722 W/m² -
1788282596 30.56° C 47% 1018.2 hPa 0 mm - 707 W/m² -
1788282291 30° C 52% 1018.5 hPa 0 mm - 695 W/m² -
1788281990 29.44° C 51% 1018.4 hPa 0 mm - 683 W/m² -
1788281685 29.44° C 50% 1018.5 hPa 0 mm - 672 W/m² -
1788281381 29.44° C 49% 1018.2 hPa 0 mm - 657 W/m² -
1788281076 29.44° C 51% 1018.3 hPa 0 mm - 640 W/m² -
1788280771 29.44° C 51% 1018.3 hPa 0 mm - 627 W/m² -
1788280466 30° C 49% 1018.5 hPa 0 mm - 611 W/m² -
1788280165 30° C 50% 1018.4 hPa 0 mm - 595 W/m² -
1788279860 30.56° C 50% 1018.5 hPa 0 mm - 582 W/m² -
1788279560 29.44° C 50% 1018.3 hPa 0 mm - 564 W/m² -
1788279259 27.78° C 56% 1018.2 hPa 0 mm - 544 W/m² -
1788278954 27.78° C 57% 1018.5 hPa 0 mm - 532 W/m² -
1788278650 27.78° C 55% 1018.3 hPa 0 mm - 484 W/m² -
1788278350 28.33° C 56% 1018.3 hPa 0 mm - 498 W/m² -
1788278050 27.78° C 57% 1018.3 hPa 0 mm - 482 W/m² -
1788277747 27.78° C 57% 1018.4 hPa 0 mm - 465 W/m² -
1788277445 26.67° C 59% 1018.4 hPa 0 mm - 446 W/m² -

* Rain latest hour (hover to see other rain measurements)
** Current wind speed in m/s (hover to see current wind gust speed)